Location: Newark
(53.3333°N, 83.7500°E)
Time: 03:41:09
(UTC+00:00)

SR - Pass Details

Date: 20 November 2019
Orbit: 573 x 882 km, 66.7° (Epoch: 06 December)

Event Time Altitude Azimuth Distance (km) Brightness Sun altitude
Rises 11:25:36 0° 261° (W) 3,309 ? -9.2°
Reaches altitude 10° 11:28:15 10° 272° (W) 2,425 ? -9.6°
Maximum altitude 11:33:15 32° 334° (NNW) 1,450 ? -10.3°
Drops below altitude 10° 11:38:30 10° 36° (NE) 2,541 ? -11.1°
Enters shadow 11:38:52 - 38° (NE) 2,661 ? -11.1°
